Location: Bogotá
(4.6533°N, 74.0837°W)
Time: 11:58:02
(UTC+00:00)

ISS - Pass Details

Date: 08 March 2026
Orbit: 416 x 427 km, 51.6° (Epoch: 6 March)

Event Time Altitude Azimuth Distance (km) Brightness Sun altitude
Rises 10:38:37 0° 328° (NNW) 2,337 -0.3 -7.5°
Reaches altitude 10° 10:40:43 10° 330° (NNW) 1,476 -1.3 -6.9°
Maximum altitude 10:44:00 69° 54° (NE) 444 -3.4 -6.1°
Drops below altitude 10° 10:47:19 10° 138° (SE) 1,481 -0.2 -5.3°
Sets 10:49:25 0° 141° (SE) 2,345 0.8 -4.8°
